Briefing Météo

Réalisé par l'Aéro Club de Sologne

Prévisions de front à 12H UTC

Satellite infrarouge Europe

Satellite visible France

Radar pluie

Précipitations prévues à 18Z

Précipitations prévues à 00Z J+1

Carte vents 12H UTC France 10m

Carte vents 15H UTC France 10m

Carte vents 12H UTC France 850 hPa

Carte vents 15H UTC France 850 hPa

Sondages prévus par MeteoFrance à 12H UTC


Sondages prévus par MeteoFrance à 15H UTC


Températures à 9h UTC

Températures à 15h UTC

Production vol à voile / Aéroweb

Sites externes

Table des Niveaux de Vol

QNH LFYR :
Delta : m
METAR : LFYR 181330Z AUTO 33005KT 280V360 CAVOK 10/05 Q1026
Plancher
Altitude standard
Altitude du jour
Zones
3000 ft
914 m
 
R20 B5
3500 ft
1066 m
 
R85
4500 ft
1371 m
 
R20 B4
FL55
1676 m
 
FL65
1981 m
R20 H4
FL95
2895 m
 
FL115
3505 m
 

Flash sécurité

Prévisions pour demain

Prévisions de Front à 0H UTC J+1

Prévisions à 24h

Prévisions à 48h